DW5513 Weather Reports


Display with metric or nautical units.
time (UTC)temp
F
wind
direction
speed
MPH
gust
MPH
rain 1hr
in
rain 24hr
in
rain mn
in
humidity
%
barometer
mb
20260830184513 76 203 1.0 7.0 0.00 0.00 0.00 67 1018.0
20260830183012 76 240 2.0 5.0 0.00 0.00 0.00 65 1018.1
20260830181509 77 241 1.0 4.0 0.00 0.00 0.00 63 1018.1
20260830180006 78 25 0.0 3.0 0.00 0.00 0.00 64 1018.0
20260830174503 76 206 2.0 5.0 0.00 0.00 0.00 66 1018.3
20260830173134 76 193 0.0 4.0 0.00 0.00 0.00 67 1018.3
20260830171603 76 269 1.0 4.0 0.00 0.00 0.00 67 1018.7
20260830170054 73 276 0.0 4.0 0.00 0.00 0.00 72 1018.8
20260830164552 73 310 1.0 5.0 0.00 0.00 0.00 70 1019.0
20260830163053 73 251 1.0 3.0 0.00 0.00 0.00 70 1019.1
20260830161602 73 231 0.0 2.0 0.00 0.00 0.00 70 1019.2
20260830160047 73 205 0.0 1.0 0.00 0.00 0.00 70 1019.3
20260830154546 73 160 0.0 2.0 0.00 0.00 0.00 70 1019.4
20260830153041 72 123 0.0 1.0 0.00 0.00 0.00 72 1019.7
20260830151540 72 135 0.0 1.0 0.00 0.00 0.00 71 1019.8
20260830150038 70 344 0.0 2.0 0.00 0.00 0.00 73 1019.8
20260830144536 69 95 0.0 1.0 0.00 0.00 0.00 75 1019.7
20260830143031 68 38 0.0 2.0 0.00 0.00 0.00 77 1019.8
20260830141526 67 50 0.0 2.0 0.00 0.00 0.00 80 1019.8
20260830140025 65 46 0.0 2.0 0.00 0.00 0.00 83 1020.0
20260830134536 64 51 0.0 3.0 0.00 0.00 0.00 84 1020.1
20260830133015 63 336 0.0 3.0 0.00 0.00 0.00 85 1020.4
20260830131512 62 59 0.0 2.0 0.00 0.00 0.00 88 1020.4
20260830130008 60 85 0.0 2.0 0.00 0.00 0.00 89 1020.3
20260830124504 59 66 0.0 3.0 0.00 0.00 0.00 90 1020.4
20260830123002 59 85 0.0 2.0 0.00 0.00 0.00 90 1020.5
20260830121600 58 57 0.0 3.0 0.00 0.00 0.00 91 1020.8
20260830120101 58 50 0.0 2.0 0.00 0.00 0.00 91 1020.8
20260830114602 57 34 0.0 2.0 0.00 0.00 0.00 91 1020.7
20260830113052 57 65 0.0 0.0 0.00 0.00 0.00 92 1020.8
20260830111551 56 61 0.0 2.0 0.00 0.00 0.00 92 1020.9
20260830110106 0 0.0 0.0 0.00 0.00 0.00 1020.9
20260830104545 0 0.0 0.0 0.00 0.00 0.00 1021.1
20260830103040 0 0.0 0.0 0.00 0.00 0.00 1021.1
20260830101535 0 54 0.0 2.0 0.00 0.00 0.00 93 1020.9
20260830100033 55 70 0.0 3.0 0.00 0.00 0.00 93 1021.0
20260830094633 55 36 0.0 2.0 0.00 0.00 0.00 93 1021.1
20260830093039 55 61 0.0 4.0 0.00 0.00 0.00 93 1021.1
20260830091532 55 46 0.0 3.0 0.00 0.00 0.00 93 1021.1
20260830090031 55 66 0.0 2.0 0.00 0.00 0.00 93 1021.1
20260830084530 55 51 0.0 3.0 0.00 0.00 0.00 92 1021.1
20260830083028 55 58 1.0 4.0 0.00 0.00 0.00 92 1021.2
20260830081532 55 76 1.0 4.0 0.00 0.00 0.00 92 1021.2
20260830080026 55 83 0.0 2.0 0.00 0.00 0.00 92 1021.3
20260830074546 55 79 0.0 3.0 0.00 0.00 0.00 92 1021.3
20260830073024 55 63 0.0 2.0 0.00 0.00 0.00 92 1021.1
20260830071523 55 79 0.0 2.0 0.00 0.00 0.00 93 1021.2
20260830070022 55 70 0.0 2.0 0.00 0.00 0.00 92 1021.2
20260830064522 55 12 0.0 1.0 0.00 0.00 0.00 93 1021.1
20260830063021 54 82 0.0 1.0 0.00 0.00 0.00 93 1021.0
20260830061526 54 66 0.0 2.0 0.00 0.00 0.00 93 1021.2
20260830060018 55 56 0.0 3.0 0.00 0.00 0.00 93 1021.4
20260830054523 55 78 0.0 4.0 0.00 0.00 0.00 92 1021.6